Location: Devore Heights
(34.2372°N, 117.4156°W)
Time: 23:21:11
(UTC+00:00)

Explorer 11/Cluster Stage 4 - Pass Details

Date: 22 September 2024
Orbit: 464 x 1207 km, 28.8° (Epoch: 14 October)

Event Time Altitude Azimuth Distance (km) Brightness Sun altitude
Exits shadow 11:45:30 37° 179° (S) 1,068 7.1 -23.8°
Maximum altitude 11:45:56 38° 167° (SSE) 1,067 7.1 -23.7°
Drops below altitude 10° 11:51:10 10° 100° (E) 2,422 10.0 -22.6°
Sets 11:54:09 0° 93° (E) 3,500 11.2 -22.1°
